WD9U Weather Reports


Display with metric or nautical units.
time (UTC)temp
F
wind
direction
speed
MPH
gust
MPH
rain 1hr
in
rain 24hr
in
rain mn
in
humidity
%
barometer
mb
20260503020710 47 0 0.0 0.0 0.00 0.00 0.00 57 1009.6
20260503020513 47 0 0.0 0.0 0.00 0.00 0.00 56 1009.6
20260503020110 47 0 0.0 0.0 0.00 0.00 0.00 55 1009.6
20260503015510 47 0 0.0 0.0 0.00 0.00 0.00 55 1009.7
20260503014910 47 0 0.0 0.0 0.00 0.00 0.00 55 1009.8
20260503014513 47 0 0.0 0.0 0.00 0.00 0.00 54 1009.8
20260503014310 47 0 0.0 0.0 0.00 0.00 0.00 54 1009.9
20260503013710 47 0 0.0 0.0 0.00 0.00 0.00 55 1009.8
20260503013110 47 0 0.0 0.0 0.00 0.00 0.00 54 1009.9
20260503012510 47 0 0.0 0.0 0.00 0.00 0.00 55 1009.8
20260503011910 47 0 0.0 0.0 0.00 0.00 0.00 55 1009.9
20260503011310 47 0 0.0 0.0 0.00 0.00 0.00 55 1009.9
20260503010710 47 0 0.0 0.0 0.00 0.00 0.00 55 1009.9
20260503010513 47 0 0.0 0.0 0.00 0.00 0.00 56 1010.0
20260503010110 47 0 0.0 0.0 0.00 0.00 0.00 56 1010.0
20260503005510 48 0 0.0 0.0 0.00 0.00 0.00 57 1009.4
20260503004910 48 0 0.0 0.0 0.00 0.00 0.00 57 1010.1
20260503004513 49 0 0.0 0.0 0.00 0.00 0.00 59 1010.2
20260503004310 49 0 0.0 0.0 0.00 0.00 0.00 59 1010.2
20260503003710 50 0 0.0 0.0 0.00 0.00 0.00 56 1010.2
20260503003110 50 0 0.0 0.0 0.00 0.00 0.00 53 1010.2
20260503002510 50 0 0.0 0.0 0.00 0.00 0.00 53 1010.3
20260503001910 50 0 0.0 0.0 0.00 0.00 0.00 55 1010.3
20260503001310 49 0 0.0 0.0 0.00 0.00 0.00 56 1010.3
20260503000710 49 0 0.0 0.0 0.00 0.00 0.00 57 1010.5
20260503000513 49 0 0.0 0.0 0.00 0.00 0.00 58 1010.5
20260503000110 49 0 0.0 0.0 0.00 0.00 0.00 59 1010.6
20260502235510 50 0 0.0 0.0 0.00 0.00 0.00 60 1010.7
20260502234910 50 0 0.0 0.0 0.00 0.00 0.00 62 1010.7
20260502234513 51 0 0.0 0.0 0.00 0.00 0.00 59 1010.7
20260502234310 51 0 0.0 0.0 0.00 0.00 0.00 59 1010.7
20260502233710 51 0 0.0 0.0 0.00 0.00 0.00 59 1010.7
20260502233110 52 0 0.0 0.0 0.00 0.00 0.00 58 1010.8
20260502232510 52 0 0.0 0.0 0.00 0.00 0.00 58 1010.8
20260502231910 53 0 0.0 0.0 0.00 0.00 0.00 55 1010.9
20260502231310 54 0 0.0 0.0 0.00 0.00 0.00 53 1010.8
20260502230710 55 0 0.0 0.0 0.00 0.00 0.00 50 1010.8
20260502230512 55 0 0.0 0.0 0.00 0.00 0.00 49 1011.0
20260502230110 56 0 0.0 0.0 0.00 0.00 0.00 44 1010.9
20260502225510 56 334 0.0 1.0 0.00 0.00 0.00 40 1010.9
20260502224910 57 304 0.0 1.0 0.00 0.00 0.00 42 1011.1
20260502224512 57 317 0.0 1.0 0.00 0.00 0.00 38 1011.1
20260502224310 57 0 0.0 0.0 0.00 0.00 0.00 37 1011.2
20260502223710 57 348 0.0 1.0 0.00 0.00 0.00 38 1011.3
20260502223110 57 9 0.0 1.0 0.00 0.00 0.00 33 1011.5
20260502222510 57 350 0.0 1.0 0.00 0.00 0.00 34 1011.5
20260502221910 57 359 0.0 1.0 0.00 0.00 0.00 32 1011.5
20260502221310 58 350 1.0 2.0 0.00 0.00 0.00 31 1011.7
20260502220710 58 321 0.0 1.0 0.00 0.00 0.00 30 1011.7
20260502220513 58 11 0.0 1.0 0.00 0.00 0.00 27 1011.7
20260502220110 59 354 4.0 7.0 0.00 0.00 0.00 27 1011.6
20260502215510 58 340 0.0 1.0 0.00 0.00 0.00 28 1011.8
20260502214910 57 8 0.0 1.0 0.00 0.00 0.00 28 1011.8
20260502214512 57 356 4.0 7.0 0.00 0.00 0.00 27 1011.9
20260502214309 57 359 5.0 8.0 0.00 0.00 0.00 27 1012.0
20260502213708 58 15 0.0 1.0 0.00 0.00 0.00 27 1011.9
20260502213109 58 358 0.0 1.0 0.00 0.00 0.00 27 1012.0
20260502212508 58 358 1.0 2.0 0.00 0.00 0.00 27 1012.1
20260502211908 58 359 0.0 1.0 0.00 0.00 0.00 27 1012.2
20260502211307 57 2 1.0 5.0 0.00 0.00 0.00 27 1012.4
20260502210707 58 9 1.0 4.0 0.00 0.00 0.00 29 1012.5
20260502210520 58 3 2.0 8.0 0.00 0.00 0.00 28 1012.4
20260502210107 59 4 1.0 2.0 0.00 0.00 0.00 27 1012.5
20260502205507 59 348 0.0 1.0 0.00 0.00 0.00 28 1012.4
20260502204907 59 10 0.0 1.0 0.00 0.00 0.00 27 1012.5
20260502204520 59 349 2.0 6.0 0.00 0.00 0.00 28 1012.6
20260502204316 59 353 0.0 1.0 0.00 0.00 0.00 28 1012.6
20260502203716 59 41 0.0 1.0 0.00 0.00 0.00 27 1012.6
20260502203116 59 10 0.0 1.0 0.00 0.00 0.00 29 1012.7
20260502202516 59 37 0.0 1.0 0.00 0.00 0.00 27 1012.8
20260502201916 58 33 0.0 1.0 0.00 0.00 0.00 30 1012.9
20260502201316 58 345 5.0 7.0 0.00 0.00 0.00 29 1013.1
20260502200716 59 55 0.0 1.0 0.00 0.00 0.00 27 1013.2
20260502200553 59 36 0.0 1.0 0.00 0.00 0.00 28 1013.2
20260502200519 59 36 0.0 1.0 0.00 0.00 0.00 28 1013.2
20260502200115 58 44 0.0 1.0 0.00 0.00 0.00 29 1013.3
20260502195515 57 43 0.0 1.0 0.00 0.00 0.00 28 1013.4
20260502194915 57 1 3.0 6.0 0.00 0.00 0.00 30 1013.5
20260502194518 58 356 5.0 8.0 0.00 0.00 0.00 28 1013.7
20260502194315 58 27 0.0 1.0 0.00 0.00 0.00 29 1013.6
20260502193715 58 49 0.0 1.0 0.00 0.00 0.00 28 1013.7
20260502193115 58 337 0.0 1.0 0.00 0.00 0.00 27 1013.9
20260502192515 57 35 0.0 1.0 0.00 0.00 0.00 27 1014.0
20260502191915 57 359 0.0 1.0 0.00 0.00 0.00 26 1014.0
20260502191315 58 352 0.0 1.0 0.00 0.00 0.00 27 1014.2
20260502190715 59 3 0.0 1.0 0.00 0.00 0.00 27 1014.2
20260502190518 59 24 0.0 1.0 0.00 0.00 0.00 27 1014.2
20260502190115 58 48 0.0 1.0 0.00 0.00 0.00 27 1014.3
20260502185515 57 68 0.0 1.0 0.00 0.00 0.00 27 1014.4
20260502184915 57 355 0.0 1.0 0.00 0.00 0.00 27 1014.5
20260502184519 57 10 0.0 1.0 0.00 0.00 0.00 27 1014.6
20260502184315 57 4 0.0 1.0 0.00 0.00 0.00 27 1014.8
20260502183715 57 356 0.0 1.0 0.00 0.00 0.00 26 1014.7
20260502183115 56 66 0.0 1.0 0.00 0.00 0.00 27 1015.0
20260502182515 56 29 0.0 1.0 0.00 0.00 0.00 28 1015.0
20260502181914 56 353 0.0 1.0 0.00 0.00 0.00 27 1015.1
20260502181313 57 0 0.0 1.0 0.00 0.00 0.00 24 1015.2
20260502180713 57 321 0.0 1.0 0.00 0.00 0.00 27 1015.3
20260502180515 57 299 0.0 1.0 0.00 0.00 0.00 27 1015.2
20260502180113 57 338 0.0 1.0 0.00 0.00 0.00 26 1015.3
20260502170511 55 315 0.0 1.0 0.00 0.00 0.00 26 1016.0
20260502170109 55 298 0.0 1.0 0.00 0.00 0.00 26 1016.1
20260502164309 55 330 0.0 1.0 0.00 0.00 0.00 26 1016.3
20260502163708 55 340 0.0 1.0 0.00 0.00 0.00 26 1016.4
20260502163108 55 329 0.0 1.0 0.00 0.00 0.00 27 1016.6
20260502162507 55 354 0.0 1.0 0.00 0.00 0.00 26 1016.6
20260502161907 55 72 0.0 1.0 0.00 0.00 0.00 28 1016.7
20260502161307 54 319 0.0 1.0 0.00 0.00 0.00 27 1016.8
20260502160707 54 342 0.0 1.0 0.00 0.00 0.00 27 1016.9
20260502160519 54 356 0.0 2.0 0.00 0.00 0.00 26 1016.9
20260502160107 54 342 4.0 6.0 0.00 0.00 0.00 27 1016.9
20260502151917 55 315 0.0 1.0 0.00 0.00 0.00 31 1017.4
20260502151317 54 198 0.0 1.0 0.00 0.00 0.00 33 1017.4
20260502150717 54 271 0.0 1.0 0.00 0.00 0.00 33 1017.5
20260502150521 54 0 0.0 0.0 0.00 0.00 0.00 32 1017.6
20260502150117 54 209 0.0 1.0 0.00 0.00 0.00 34 1017.6
20260502140116 49 236 0.0 1.0 0.00 0.00 0.00 44 1018.1
20260502130716 42 210 0.0 1.0 0.00 0.00 0.00 52 1018.6
20260502130519 41 208 0.0 1.0 0.00 0.00 0.00 53 1018.5
20260502130116 41 214 0.0 1.0 0.00 0.00 0.00 53 1018.5
20260502123716 38 0 0.0 0.0 0.00 0.00 0.00 67 1018.7
20260502123117 37 0 0.0 0.0 0.00 0.00 0.00 69 1018.6
20260502122516 36 0 0.0 0.0 0.00 0.00 0.00 73 1018.7
20260502121916 35 0 0.0 0.0 0.00 0.00 0.00 76 1018.7
20260502121316 34 0 0.0 0.0 0.00 0.00 0.00 79 1018.7
20260502120716 33 0 0.0 0.0 0.00 0.00 0.00 80 1018.7
20260502120518 33 0 0.0 0.0 0.00 0.00 0.00 80 1018.6
20260502120116 32 0 0.0 0.0 0.00 0.00 0.00 82 1018.6
20260502115516 31 0 0.0 0.0 0.00 0.00 0.00 83 1018.6
20260502114916 30 0 0.0 0.0 0.00 0.00 0.00 85 1018.7
20260502114518 30 0 0.0 0.0 0.00 0.00 0.00 86 1018.6
20260502114316 29 0 0.0 0.0 0.00 0.00 0.00 86 1018.7
20260502113716 28 0 0.0 0.0 0.00 0.00 0.00 87 1018.6
20260502113116 27 0 0.0 0.0 0.00 0.00 0.00 87 1018.6
20260502112516 27 0 0.0 0.0 0.00 0.00 0.00 86 1018.5
20260502111915 26 0 0.0 0.0 0.00 0.00 0.00 85 1018.6
20260502111315 26 0 0.0 0.0 0.00 0.00 0.00 85 1018.5
20260502110714 26 0 0.0 0.0 0.00 0.00 0.00 84 1018.4
20260502110623 26 0 0.0 0.0 0.00 0.00 0.00 85 1018.5
20260502110516 26 0 0.0 0.0 0.00 0.00 0.00 85 1018.5
20260502110114 26 0 0.0 0.0 0.00 0.00 0.00 84 1018.5
20260502105514 26 0 0.0 0.0 0.00 0.00 0.00 84 1018.5
20260502104914 26 0 0.0 0.0 0.00 0.00 0.00 84 1018.6
20260502104314 27 0 0.0 0.0 0.00 0.00 0.00 83 1018.6
20260502103714 27 0 0.0 0.0 0.00 0.00 0.00 83 1018.6
20260502103114 27 0 0.0 0.0 0.00 0.00 0.00 83 1018.5
20260502102514 27 0 0.0 0.0 0.00 0.00 0.00 83 1018.5
20260502101914 27 0 0.0 0.0 0.00 0.00 0.00 83 1018.6
20260502101314 27 0 0.0 0.0 0.00 0.00 0.00 83 1018.6
20260502100714 27 0 0.0 0.0 0.00 0.00 0.00 83 1018.5
20260502100516 27 0 0.0 0.0 0.00 0.00 0.00 83 1018.7
20260502100114 27 0 0.0 0.0 0.00 0.00 0.00 83 1018.6
20260502091314 28 0 0.0 0.0 0.00 0.00 0.00 82 1018.6
20260502090714 28 0 0.0 0.0 0.00 0.00 0.00 82 1018.7
20260502090516 28 0 0.0 0.0 0.00 0.00 0.00 82 1018.6
20260502090114 28 0 0.0 0.0 0.00 0.00 0.00 82 1018.7
20260502071313 29 0 0.0 0.0 0.00 0.00 0.00 79 1019.1
20260502070712 29 0 0.0 0.0 0.00 0.00 0.00 79 1019.3
20260502070515 29 0 0.0 0.0 0.00 0.00 0.00 79 1019.2
20260502070112 29 0 0.0 0.0 0.00 0.00 0.00 79 1019.2
20260502065513 29 0 0.0 0.0 0.00 0.00 0.00 79 1019.3
20260502064913 29 0 0.0 0.0 0.00 0.00 0.00 78 1019.2
20260502064515 29 0 0.0 0.0 0.00 0.00 0.00 78 1019.3
20260502064312 29 0 0.0 0.0 0.00 0.00 0.00 78 1019.4
20260502063713 29 0 0.0 0.0 0.00 0.00 0.00 78 1019.4
20260502063111 29 0 0.0 0.0 0.00 0.00 0.00 77 1019.4
20260502062511 29 0 0.0 0.0 0.00 0.00 0.00 77 1019.3
20260502061911 29 0 0.0 0.0 0.00 0.00 0.00 77 1019.4
20260502061311 29 0 0.0 0.0 0.00 0.00 0.00 77 1019.3
20260502060711 29 0 0.0 0.0 0.00 0.00 0.00 76 1019.4
20260502060514 29 0 0.0 0.0 0.00 0.00 0.00 76 1019.4
20260502060111 29 0 0.0 0.0 0.00 0.00 0.00 76 1019.4
20260502055511 30 0 0.0 0.0 0.00 0.00 0.00 75 1019.4
20260502054911 30 0 0.0 0.0 0.00 0.00 0.00 74 1019.5
20260502054516 30 0 0.0 0.0 0.00 0.00 0.00 74 1019.4
20260502054311 30 0 0.0 0.0 0.00 0.00 0.00 74 1019.5
20260502053711 30 0 0.0 0.0 0.00 0.00 0.00 74 1019.5
20260502053111 30 0 0.0 0.0 0.00 0.00 0.00 74 1019.5
20260502052511 31 0 0.0 0.0 0.00 0.00 0.00 74 1019.5
20260502051911 31 0 0.0 0.0 0.00 0.00 0.00 73 1019.4
20260502051311 31 0 0.0 0.0 0.00 0.00 0.00 73 1019.5
20260502050711 31 0 0.0 0.0 0.00 0.00 0.00 72 1019.5
20260502050514 31 0 0.0 0.0 0.00 0.00 0.00 72 1019.4
20260502050111 31 0 0.0 0.0 0.00 0.00 0.00 72 1019.5
20260502045511 32 0 0.0 0.0 0.00 0.00 0.00 71 1019.7
20260502044911 32 0 0.0 0.0 0.00 0.00 0.00 70 1019.6
20260502044514 32 0 0.0 0.0 0.00 0.00 0.00 70 1019.5
20260502044311 32 0 0.0 0.0 0.00 0.00 0.00 70 1019.5
20260502043711 32 0 0.0 0.0 0.00 0.00 0.00 70 1019.5
20260502043111 33 0 0.0 0.0 0.00 0.00 0.00 68 1019.5
20260502042511 33 0 0.0 0.0 0.00 0.00 0.00 68 1019.5
20260502041911 33 0 0.0 0.0 0.00 0.00 0.00 68 1019.5
20260502041311 33 0 0.0 0.0 0.00 0.00 0.00 67 1019.5
20260502040711 34 0 0.0 0.0 0.00 0.00 0.00 67 1019.6
20260502040514 34 0 0.0 0.0 0.00 0.00 0.00 67 1019.5
20260502040111 34 0 0.0 0.0 0.00 0.00 0.00 66 1019.6
20260502035511 34 0 0.0 0.0 0.00 0.00 0.00 66 1019.7
20260502034911 35 0 0.0 0.0 0.00 0.00 0.00 65 1019.7
20260502034513 35 0 0.0 0.0 0.00 0.00 0.00 65 1019.6
20260502034310 35 0 0.0 0.0 0.00 0.00 0.00 65 1019.6
20260502033710 35 0 0.0 0.0 0.00 0.00 0.00 64 1019.7
20260502033110 36 0 0.0 0.0 0.00 0.00 0.00 63 1019.6
20260502032510 36 0 0.0 0.0 0.00 0.00 0.00 63 1019.6
20260502031910 36 0 0.0 0.0 0.00 0.00 0.00 62 1019.6
20260502031310 37 0 0.0 0.0 0.00 0.00 0.00 61 1019.7
20260502030710 37 0 0.0 0.0 0.00 0.00 0.00 60 1019.5
20260502030512 37 0 0.0 0.0 0.00 0.00 0.00 60 1019.5
20260502030110 37 0 0.0 0.0 0.00 0.00 0.00 59 1019.5
20260502025510 38 0 0.0 0.0 0.00 0.00 0.00 58 1019.6
20260502024910 38 0 0.0 0.0 0.00 0.00 0.00 56 1019.7
20260502024513 38 0 0.0 0.0 0.00 0.00 0.00 56 1019.6
20260502024310 38 0 0.0 0.0 0.00 0.00 0.00 55 1019.6
20260502023710 39 0 0.0 0.0 0.00 0.00 0.00 54 1019.6
20260502023110 39 0 0.0 0.0 0.00 0.00 0.00 52 1019.7
20260502022509 39 0 0.0 0.0 0.00 0.00 0.00 51 1019.7
20260502021909 40 0 0.0 0.0 0.00 0.00 0.00 50 1019.7
20260502021309 40 0 0.0 0.0 0.00 0.00 0.00 49 1019.6